Reflectivity
16 8 -20 -20 -20 -20 -20 -20 -20 -20 -20 -20 -20 -20 -5 7 -17 -20 1 7 -0 2 -20 -20 -20 -20 -20 -20 -20 -3 -20 -20 17 -20 5 8 -1 -9 -20 -20 -20 5 2
-0 -19 -20 -20 -20 -20 -20 -20 -20 -20 -20 -20 -20 -20 -20 -20 -20 -20 8 8 13 5 -0 -4 -20 -20 -20 -20 -20 -20 -20 -20 -20 -19 3 -1 5 -3 -20 -20 -20 -13 -5
-3 -20 -20 -20 -20 -20 -20 -20 -20 -20 -20 -20 -20 -20 -20 -20 -20 -20 -8 6 5 8 5 1 -20 -20 -20 -20 -20 -20 -20 -20 -20 -20 -20 -20 -20 1 -20 -20 -20 -20 -18
-1 -20 -20 -20 -20 -20 -20 -20 -20 -20 -20 -20 -20 -20 -20 -20 -17 -20 -20 -20 4 10 5 4 -20 -18 -3 -16 9 -20 -20 -20 -20 -20 -20 -20 -20 -20 -15 -13 -20 -17 16
-10 -20 -20 -20 -20 -20 -20 -20 -20 -20 -20 -20 -20 -20 -20 -20 -20 -20 -20 -20 6 7 0 -8 -20 -20 -20 -20 3 -20 -20 -20 -20 -20 -20 -20 -14 -4 3 2 -12 -20 -20
0 -20 -20 -20 -20 -20 -20 -20 -20 -20 -20 -20 -20 -20 -20 -20 -20 -20 -20 -20 -20 -20 -20 -20 -20 -20 -20 4 -20 -20 -20 -20 -20 -20 -20 -20 -20 4 12 11 7 11 10
6 -1 4 -20 -20 -20 -20 -20 -20 -20 -20 -20 -20 -20 -20 -20 -20 -20 -20 -20 -20 -20 -20 -20 -20 -20 -20 -20 -20 -20 -20 -20 -20 -20 -20 -20 -20 -20 -17 -3 -20 -13 9
-20 -20 -20 -20 -20 -20 -20 -20 -20 -20 -20 -20 -20 -20 -20 -20 -20 -20 -20 -20 -20 -20 -20 -20 -20 -20 -20 -20 -20 -20 -20 -20 -20 -20 -20 -20 -20 -18 -2 -12 -19 2 -13
-20 -20 -20 -20 -20 -20 -20 -20 -20 -20 -20 -20 -20 -20 -20 -20 -20 -20 -20 -20 -20 -20 -20 -20 -20 -20 -20 -20 -20 -20 -20 -20 -20 -20 -20 -20 -20 -20 -3 10 -15 -14 -20
-20 -20 -20 -20 -20 -20 -20 -20 -20 -20 -20 -20 -20 -20 -20 -20 -20 -20 -20 -20 -20 -20 -20 -20 -20 -20 -20 -20 -20 -20 -20 -20 -20 -20 -20 -20 -20 -20 -1 2 3 -20 -20
-13 -20 -20 -20 -20 -20 -20 -20 -20 -20 -20 -20 -20 -20 3 -20 -20 -20 -20 -20 -20 -20 -20 -20 -20 -20 -20 -20 -20 -20 -20 -20 -20 -20 -20 -20 1 -20 -20 -20 0 -20 -20
12 22 -12 14 -10 -20 -5 -20 -20 -20 -20 -20 -20 -20 -20 -20 -20 -20 -20 -20 -20 -20 -20 -20 -20 -20 -20 -20 -20 -20 -20 -20 -20 -20 -20 -20 -20 -20 -20 -20 -20 -20 -20
-2 -18 -13 -14 -19 19 14 -15 -20 -20 -20 -18 -20 -20 -20 -20 -20 -20 -20 -20 -20 -20 -20 -20 -20 -20 -20 -20 -20 -20 -20 -20 -20 -20 -20 -20 -20 -20 -20 -20 -20 -20 -20
4 -20 -16 -20 6 -19 -19 4 4 6 -12 1 -20 -20 -20 -20 -20 -20 -20 -20 -20 -20 -20 -20 -20 -20 -20 -20 -20 -20 -20 -20 -20 -20 -20 -20 -20 -20 -20 -20 -20 -20 -20
-20 -14 -17 -20 -20 -20 -18 -15 -19 3 6 6 -3 -20 -3 -20 -20 -20 -20 -20 -20 -20 -20 -20 -20 -20 -20 -20 -20 -20 -20 -20 -20 -20 -20 -20 -20 -20 -20 -20 -20 -20 -20
-20 -20 -20 -20 -20 -20 -20 -20 -20 -20 -20 -15 -19 4 -19 15 -18 -20 -10 -20 -20 -20 -20 -20 -20 -20 -20 -20 -20 -20 -20 -20 -20 -20 -20 -20 -20 -20 -20 -20 -20 -20 -20
-20 -20 -20 -20 -20 -20 -20 -20 -20 -20 -20 -20 -20 -20 -13 1 13 4 -1 -2 -19 -19 -20 -20 -20 -20 -20 -20 -20 -20 -20 -20 -20 -20 -20 -20 -20 -20 -20 -20 -20 -20 -20
-20 -20 -20 -20 -20 -20 -20 -20 -20 -20 -20 -20 -20 -20 -20 -20 -14 -14 -1 29 30 7 3 -19 -20 -20 -20 -20 -20 -20 -20 -20 -20 -20 -20 -20 -20 -20 -20 -20 -20 -20 -20
-20 -20 -20 -20 -20 -20 -20 -20 -20 -20 -20 -20 -20 -20 -20 -20 -20 -20 -13 -20 6 20 28 16 5 1 -20 -20 -20 -20 -11 7 -1 -7 -20 -20 -20 -20 -20 -20 -20 -20 -20
-20 -20 -20 -20 -20 -20 -20 -20 -20 -20 -20 -20 -20 -20 -20 -20 -20 -20 -20 -20 -20 -4 21 33 27 17 -9 -15 -20 -0 -13 -20 -20 -20 -20 -20 -20 -20 -20 -20 -20 -20 -20
-20 -20 -20 -20 -20 -20 -20 -20 -20 -20 -20 -20 -20 -20 -20 -20 -20 -20 -20 -20 -20 -20 -6 -0 35 33 37 35 3 -20 -20 -4 -20 -20 -20 -20 -20 -20 -20 -20 -20 -20 -20
-20 -20 -20 -20 -20 -20 -20 -20 -20 -20 -20 -20 -20 -20 -20 -20 -20 -20 -20 -20 -20 -20 -20 -20 -12 -12 16 12 4 18 -18 -20 -20 -12 -20 -20 -20 -20 -20 -20 -20 -20 -20
-20 -20 -20 -20 -20 -20 -20 -20 -20 -20 -20 -20 -20 -20 -20 -20 -20 -20 -20 -20 -20 -20 -20 -10 -20 -5 2 6 11 -5 8 -20 -6 -17 -20 -17 -20 -20 -20 -20 -20 -20 -20
-20 -20 -20 -20 -20 -20 -20 -20 -20 -20 -20 -20 -20 -20 -20 -20 -20 -20 -20 -20 -20 -20 -20 -20 -20 -20 -18 -16 -10 16 14 -19 -20 -20 -20 -20 -20 -20 -20 -20 -20 -20 -20
-20 -20 -20 -20 -20 -20 -20 -20 -20 -20 -20 -20 -20 -20 -20 -20 -20 -20 -20 -20 -20 -20 -20 -20 -20 -20 -20 -20 -2 -0 11 22 -10 12 -18 -20 -20 -20 -20 -20 -20 -20 -20
-20 -20 -20 -20 -20 -20 -20 -20 -20 -20 -20 -20 -20 -20 -20 -20 -20 -20 -20 -20 -20 -20 -20 -20 -20 -20 -20 -20 -1 -2 21 18 17 37 5 -14 -19 -20 -20 -20 -20 -20 -20
Wind_Speed
5 5 8 8 9 11 13 12 13 13 12 12 13 13 13 12 15 13 13 15 14 15 16 17 17 17 18 18 18 17 17 16 16 16 16 17 17 17 16 16 14 11 17
7 5 9 8 9 10 12 11 12 12 12 13 12 12 13 14 13 11 15 14 15 15 15 16 17 17 17 17 16 15 15 15 14 14 15 16 17 17 16 15 13 12 16
9 5 7 9 8 10 11 11 11 11 12 12 11 11 11 12 12 13 15 13 14 14 15 15 16 16 16 14 15 14 13 11 12 12 12 5 7 15 16 15 13 14 14
10 6 6 9 9 9 9 10 10 10 10 10 10 9 10 10 11 12 13 11 14 13 14 14 15 14 13 10 10 10 9 9 9 10 5 5 8 13 14 14 13 14 13
11 7 6 9 9 9 9 9 9 9 9 9 9 8 8 9 10 12 14 13 13 13 13 13 13 12 11 10 10 8 5 10 9 7 5 5 4 9 12 12 11 11 11
11 7 7 9 9 9 8 9 8 8 8 8 7 7 8 9 11 13 13 13 12 12 12 12 11 11 10 9 9 7 10 10 8 5 5 7 6 11 13 13 10 11 11
10 7 6 10 9 9 9 9 8 8 7 7 7 7 8 10 9 10 11 10 10 10 10 10 9 9 10 11 13 9 9 8 5 4 5 5 6 11 10 10 10 10 10
12 9 7 10 10 10 9 9 8 7 7 6 5 6 7 8 8 7 7 8 8 8 8 7 7 8 9 11 13 11 7 6 5 5 5 4 9 9 9 9 9 9 10
15 13 11 10 9 10 10 9 8 7 6 5 4 4 5 5 5 6 5 4 5 6 6 5 5 6 7 9 9 9 7 8 5 3 3 3 8 7 8 7 9 8 8
16 15 14 13 11 6 6 9 9 7 6 4 3 2 2 2 2 2 3 2 1 1 2 2 2 2 4 5 5 6 4 7 4 2 1 2 7 8 7 6 6 6 6
15 15 13 14 13 10 8 8 8 8 8 7 5 5 2 2 2 3 4 2 4 4 3 3 3 4 5 2 2 5 3 3 3 3 2 4 8 8 7 5 4 4 4
15 15 13 12 13 11 9 9 7 7 4 4 4 5 4 5 4 4 4 6 5 5 5 5 5 5 5 3 2 3 2 3 4 4 3 5 5 7 7 7 5 3 4
12 12 15 13 12 11 10 7 5 5 5 5 8 6 4 3 3 4 3 2 3 5 3 4 3 2 3 2 1 1 3 2 3 3 5 8 8 8 7 7 6 5 4
14 12 14 13 12 12 8 8 8 8 7 7 8 9 6 3 4 4 3 4 4 3 4 4 3 4 4 5 5 3 4 3 2 2 4 10 10 9 9 9 8 7 7
15 13 13 13 11 10 11 8 7 8 7 8 8 10 8 6 6 5 3 3 3 4 4 4 4 4 5 5 4 5 4 5 5 3 3 11 10 10 12 11 10 10 9
11 12 10 13 11 11 10 10 8 7 8 7 8 9 10 6 6 5 5 4 3 3 4 4 5 4 5 4 6 5 5 5 5 5 4 5 11 10 11 12 13 12 12
6 6 9 11 10 11 10 8 6 7 6 7 8 10 11 11 9 7 5 4 4 5 5 4 4 3 4 5 7 6 4 6 5 6 5 4 6 11 11 11 12 13 14
6 7 7 8 8 9 9 7 6 7 7 7 7 7 12 12 13 9 8 7 6 4 5 2 2 3 4 5 6 6 4 5 6 8 7 5 5 6 10 13 13 13 14
5 6 8 8 8 8 8 6 6 7 7 6 7 8 10 11 12 9 8 9 11 6 3 4 3 3 5 4 4 5 4 3 7 6 7 8 8 7 6 11 14 14 14
4 5 6 5 7 7 5 5 4 5 7 7 6 8 11 10 11 9 8 10 10 8 8 4 4 2 3 4 7 7 5 5 4 6 8 7 7 9 8 8 7 9 15
7 7 6 7 7 6 6 4 4 5 4 7 7 9 10 9 11 10 8 9 9 9 10 9 7 5 6 4 5 5 4 5 6 5 5 7 9 10 10 9 6 6 7
3 3 5 5 7 5 3 3 2 3 3 3 4 7 8 9 9 10 9 9 10 8 10 11 11 6 3 3 2 1 5 5 2 5 5 6 10 9 10 11 11 10 9
4 3 4 4 6 5 5 3 3 3 2 4 5 6 6 9 9 9 9 8 9 8 8 9 11 12 7 6 8 3 4 3 3 2 3 4 6 7 9 9 11 11 11
1 1 4 5 5 4 5 5 6 4 4 3 3 4 7 7 8 9 8 9 9 6 10 9 8 7 7 8 8 6 10 6 4 7 3 4 3 5 6 5 6 8 9
1 1 2 4 4 3 4 5 4 5 3 3 3 6 6 6 7 7 7 7 7 6 9 10 10 10 7 5 5 7 10 7 6 6 9 4 2 4 4 5 6 6 9
2 1 2 3 2 2 3 4 5 5 3 4 5 5 4 4 4 5 6 6 6 5 7 8 8 9 9 8 6 6 6 5 9 6 8 6 5 4 3 4 5 6 6
Wind_Direction
48 49 60 43 51 65 68 67 65 61 60 63 64 62 64 74 76 73 74 73 76 79 77 81 84 88 88 86 82 83 80 77 82 84 91 93 92 89 86 79 75 78 86
79 52 63 54 58 64 68 65 65 65 63 62 60 62 65 74 74 73 75 74 82 80 79 84 87 88 89 86 77 72 70 72 72 80 87 92 92 92 89 82 79 82 79
85 47 58 56 56 62 69 66 64 66 69 68 65 67 72 77 79 72 73 69 71 74 78 86 88 90 91 82 87 82 74 77 86 87 84 71 85 92 91 85 82 83 87
78 45 52 61 52 57 62 66 61 65 67 71 65 68 75 80 89 84 81 72 66 67 77 83 82 80 73 67 61 54 72 88 82 80 68 63 92 94 94 95 94 93 91
73 38 41 56 56 56 56 59 61 60 54 55 66 65 70 80 98 98 79 65 61 63 75 74 69 63 54 42 31 27 82 114 97 85 77 70 75 97 106 92 89 90 89
63 46 35 38 45 49 54 62 62 57 64 60 56 69 58 56 66 75 83 75 69 66 68 63 61 53 46 35 15 22 117 116 100 76 72 78 74 79 80 87 86 87 91
56 35 28 30 41 46 49 45 47 49 54 66 67 58 71 65 59 68 81 85 81 74 71 62 51 46 35 27 20 108 115 109 108 92 84 89 92 94 95 95 89 82 82
50 32 20 22 29 32 41 43 42 44 41 49 65 67 65 74 71 54 74 96 99 95 85 68 51 47 35 33 30 41 51 96 88 89 93 93 105 108 107 108 99 89 86
44 31 27 21 13 22 27 32 29 35 38 39 49 66 80 83 83 85 55 79 109 115 115 104 75 52 44 44 38 38 50 63 67 71 96 110 117 126 123 117 103 100 94
41 31 18 20 20 12 17 13 10 11 15 19 14 19 69 84 83 29 107 118 123 139 147 136 104 46 54 51 54 53 82 125 121 104 108 164 147 140 130 126 122 116 107
33 29 16 20 16 7 19 11 9 353 358 356 347 325 332 309 292 297 298 233 189 198 243 283 308 327 342 10 76 118 129 179 173 176 184 242 186 156 148 145 150 128 117
33 22 20 14 14 5 7 8 4 9 8 352 327 322 308 292 268 244 256 272 255 241 228 239 274 307 334 326 1 113 173 198 194 185 197 229 229 175 162 162 162 152 138
34 26 21 16 17 7 11 2 11 19 11 20 38 348 282 302 321 318 303 244 262 262 284 278 269 262 269 269 282 318 300 258 218 194 194 201 223 204 186 178 172 175 164
36 27 22 19 17 16 17 14 9 24 23 19 16 19 10 344 317 292 263 284 263 256 246 259 283 270 253 255 259 221 235 257 202 201 204 203 209 220 208 196 188 191 185
35 23 24 21 17 14 24 19 17 29 26 15 12 16 15 12 3 341 315 265 269 294 276 252 248 270 271 258 253 263 232 241 190 202 202 205 213 222 205 207 205 203 198
39 25 19 26 19 19 22 18 14 18 20 23 17 16 14 360 1 1 350 341 288 253 259 276 279 249 254 257 267 237 241 227 206 201 208 205 210 221 214 214 209 210 207
35 20 20 32 21 24 18 12 13 12 15 19 14 10 11 15 0 1 342 359 359 331 287 255 266 272 275 278 264 253 211 200 199 205 205 211 207 218 218 222 217 210 211
53 35 17 26 28 23 15 10 12 11 15 13 9 9 9 10 13 14 358 344 337 334 330 2 322 276 258 263 263 260 222 199 201 203 192 195 206 208 218 217 215 215 213
58 41 29 13 24 25 11 10 8 10 20 7 11 13 9 10 9 8 1 360 344 321 286 321 8 359 316 322 290 268 253 220 207 187 201 200 204 215 210 219 216 208 213
68 51 40 25 18 20 14 9 10 16 15 15 11 14 10 11 10 9 7 0 359 355 340 292 267 258 292 306 311 282 248 228 233 201 196 207 208 210 220 216 207 224 215
38 52 31 35 7 27 28 11 13 17 2 14 13 7 13 8 8 9 7 4 1 1 358 0 332 350 326 352 317 319 295 240 218 227 212 197 203 210 210 212 214 205 216
80 85 57 42 31 24 24 356 10 337 340 344 345 2 9 7 6 11 7 5 359 358 1 357 8 350 324 322 286 299 304 325 293 226 214 219 209 202 213 213 207 209 205
61 45 71 58 48 33 34 28 357 345 349 5 357 3 351 2 3 7 5 4 359 1 2 10 13 8 342 335 317 217 283 248 335 332 267 239 245 214 212 213 213 210 208
143 72 107 77 59 38 28 47 46 31 12 339 330 332 349 352 355 3 359 1 2 4 9 7 5 11 9 355 334 352 267 256 263 300 270 285 253 240 213 193 205 214 207
170 106 156 118 90 64 65 73 63 40 347 321 337 356 341 336 347 356 356 357 1 4 13 4 4 1 5 339 346 345 322 276 224 228 279 279 261 225 225 197 192 210 221
250 236 167 134 119 93 95 83 88 71 18 9 348 347 341 333 331 351 351 355 350 355 17 10 0 359 356 349 341 343 339 326 336 253 237 254 249 264 239 246 202 196 219